Location: Brookview Estates
(36.0476°N, 86.6931°W)
Time: 18:51:03
(UTC+00:00)

NOSS 3-1 (C) - Pass Details

Date: 30 March 2020
Orbit: 752 x 1456 km, 63.4° (Epoch: 31 May)

Event Time Altitude Azimuth Distance (km) Brightness Sun altitude
Rises 00:18:18 0° 327° (NNW) 4,071 7.4 -3.2°
Reaches altitude 10° 00:20:54 10° 326° (NNW) 3,195 6.8 -3.7°
Maximum altitude 00:28:49 82° 241° (WSW) 1,374 4.4 -5.3°
Drops below altitude 10° 00:37:40 10° 155° (SSE) 3,548 6.1 -7.0°
Sets 00:40:41 0° 154° (SSE) 4,541 6.6 -7.6°
